Flag for Germany Weather past 2 weeks in Warstein, North Rhine-Westphalia, Germany

Now
46 °F

Partly sunny.


Feels Like: 38 °F
Forecast: 46 / 48 °F
Wind: 24 mph from Southwest

Location: Paderborn / Lippstadt

Current Time: Dec 22, 2014 at 11:11:23 AM

Latest Report: Dec 22, 2014 at 10:20 AM


Visibility: N/A

Pressure: 30.04 "Hg

Humidity: 87%

Dew point: 43 °F

Location of WarsteinLocation

Historic Weather in Warstein — Graph

°F

Warstein temperature yesterday

Maximum temperature yesterday: 45 °F (at 8:50 PM)
Minimum temperature yesterday: 37 °F (at 12:20 AM)
Average temperature yesterday: 41 °F

Past Weeks' High & Low Weather Summary

 TemperatureHumidityPressure
High54 °F (Dec 18, 5:50 PM)100% (Dec 8, 12:50 AM)30.36 "Hg (Dec 8, 12:50 AM)
Low27 °F (Dec 15, 12:50 AM)56% (Dec 10, 5:20 AM)29.39 "Hg (Dec 12, 2:50 PM)
Average40 °F86%29.92 "Hg
* Reported Dec 7 9:20 AM — Dec 22 9:50 AM, Warstein, Weather by CustomWeather, © 2014

Note: Actual official high and low records may vary slightly from our data, if they occured in-between our weather recording intervals... More about our weather records

Advertising

Warstein weather history for previous 24 hours

 ConditionsComfort  
Time TempWeatherWind HumidityBarometerVisibility
9:50 AM
Dec 22
46 °FPartly sunny.23 mph87%30.01 "HgN/A
9:20 AM46 °FPartly sunny.23 mph87%30.04 "HgN/A
8:50 AM46 °FPartly sunny.22 mph87%30.04 "HgN/A
8:20 AM45 °FPassing clouds.24 mph93%30.01 "HgN/A
7:50 AM45 °FPassing clouds.24 mph93%30.04 "HgN/A
7:20 AM45 °FPassing clouds.26 mph93%30.04 "HgN/A
6:50 AM45 °FPassing clouds.23 mph93%30.04 "HgN/A
6:20 AM46 °FLight rain. Passing clouds.20 mph87%30.04 "HgN/A
5:50 AM45 °FSprinkles. Passing clouds.21 mph93%30.04 "Hg4 mi
5:20 AM46 °FSprinkles. Passing clouds.24 mph82%30.04 "HgN/A
4:20 AM46 °FPassing clouds.23 mph82%30.04 "HgN/A
3:50 AM46 °FPassing clouds.20 mph82%30.07 "HgN/A
3:20 AM45 °FPassing clouds.18 mph87%30.07 "HgN/A
2:50 AM45 °FPassing clouds.23 mph87%30.07 "HgN/A
2:20 AM45 °FPassing clouds.20 mph87%30.09 "HgN/A
1:50 AM45 °FPassing clouds.22 mph87%30.09 "HgN/A
1:20 AM45 °FPartly cloudy.21 mph81%30.09 "HgN/A
12:50 AM45 °FPartly cloudy.21 mph81%30.12 "HgN/A
12:20 AM45 °FPartly cloudy.12 mph87%30.12 "HgN/A
11:50 PM
Dec 21
45 °FPassing clouds.21 mph87%30.12 "HgN/A
11:20 PM45 °FPassing clouds.21 mph87%30.12 "HgN/A
10:20 PM45 °FPassing clouds.17 mph87%30.15 "HgN/A
9:50 PM45 °FPassing clouds.17 mph87%30.15 "HgN/A
9:20 PM45 °FPassing clouds.17 mph87%30.15 "HgN/A
8:50 PM45 °FPassing clouds.18 mph87%30.15 "HgN/A
8:20 PM43 °FPassing clouds.14 mph93%30.18 "HgN/A
7:50 PM43 °FPassing clouds.9 mph93%30.18 "Hg6 mi
7:20 PM43 °FPassing clouds.14 mph93%30.18 "Hg6 mi
6:50 PM43 °FPassing clouds.14 mph87%30.18 "HgN/A
6:20 PM43 °FPassing clouds.15 mph87%30.18 "Hg6 mi
5:50 PM43 °FDrizzle. Mostly cloudy.20 mph87%30.18 "HgN/A
5:20 PM41 °FDrizzle. Mostly cloudy.21 mph93%30.21 "HgN/A
4:50 PM43 °FLight rain. Overcast.18 mph81%30.21 "HgN/A
4:20 PM41 °FPassing clouds.17 mph87%30.24 "HgN/A
3:50 PM41 °FDrizzle. Partly sunny.18 mph87%30.24 "HgN/A
3:20 PM41 °FDrizzle. Mostly cloudy.18 mph87%30.24 "Hg5 mi
2:50 PM41 °FPartly sunny.17 mph81%30.27 "HgN/A
2:20 PM41 °FBroken clouds.18 mph81%30.27 "HgN/A
1:50 PM41 °FPartly sunny.16 mph81%30.27 "HgN/A
1:20 PM41 °FPartly sunny.16 mph81%30.30 "HgN/A
12:50 PM41 °FBroken clouds.16 mph81%30.30 "Hg6 mi
12:20 PM41 °FBroken clouds.14 mph81%30.30 "Hg6 mi
11:50 AM41 °FBroken clouds.12 mph87%30.33 "Hg5 mi
11:20 AM41 °FBroken clouds.14 mph81%30.33 "Hg5 mi
Weather by CustomWeather, © 2014

See weather overviewHow to use our weather pages